This is the latest recevied weather packets stored in our database for station/object KG4QXF. If no packets are shown the sender has not sent any weather packets the latest 10 day(s).
| Time | Temp. | Humidity | Pressure | Rain* | Wind** | Luminosity | Snow |
|---|---|---|---|---|---|---|---|
| 1777220383 | 26.67° C | 66% | 1013.1 hPa | 0 mm | - | - | - |
| 1777220082 | 27.22° C | 64% | 1013.1 hPa | 0 mm | - | - | - |
| 1777219779 | 26.67° C | 66% | 1013.2 hPa | 0 mm | - | - | - |
| 1777219477 | 26.11° C | 67% | 1013.3 hPa | 0 mm | - | - | - |
| 1777219173 | 26.11° C | 67% | 1013.2 hPa | 0 mm | - | - | - |
| 1777218869 | 25.56° C | 69% | 1013.3 hPa | 0 mm | - | - | - |
| 1777218566 | 25° C | 69% | 1013.4 hPa | 0 mm | - | - | - |
| 1777218266 | 25.56° C | 68% | 1013.3 hPa | 0 mm | - | - | - |
| 1777217963 | 25° C | 69% | 1013.3 hPa | 0 mm | - | - | - |
| 1777217658 | 25.56° C | 69% | 1013.3 hPa | 0 mm | - | - | - |
| 1777217355 | 25.56° C | 69% | 1013.4 hPa | 0 mm | - | - | - |
| 1777217050 | 25.56° C | 68% | 1013.3 hPa | 0 mm | - | - | - |
| 1777216748 | 25.56° C | 69% | 1013.2 hPa | 0 mm | - | - | - |
| 1777216443 | 25.56° C | 70% | 1013.3 hPa | 0 mm | - | - | - |
| 1777216143 | 25° C | 70% | 1013.3 hPa | 0 mm | - | - | - |
| 1777215837 | 25.56° C | 69% | 1013.2 hPa | 0 mm | - | - | - |
| 1777215533 | 25.56° C | 70% | 1013.4 hPa | 0 mm | - | - | - |
| 1777215230 | 25° C | 72% | 1013.2 hPa | 0 mm | - | - | - |
| 1777214925 | 24.44° C | 72% | 1013 hPa | 0 mm | - | - | - |
| 1777214625 | 24.44° C | 73% | 1013.1 hPa | 0 mm | - | - | - |
| 1777214320 | 24.44° C | 72% | 1013.1 hPa | 0 mm | - | - | - |
| 1777214019 | 24.44° C | 72% | 1012.9 hPa | 0 mm | - | - | - |
| 1777213714 | 25° C | 71% | 1012.9 hPa | 0 mm | - | - | - |
| 1777213410 | 25° C | 72% | 1012.8 hPa | 0 mm | - | - | - |
| 1777213108 | 24.44° C | 74% | 1012.9 hPa | 0 mm | - | - | - |
* Rain latest hour (hover to see other rain measurements)
** Current wind speed in m/s (hover to see current wind gust speed)